FENGYUN 1C DEB

Satellite information

Favourite Embed

Satellite Type and Status

DEBRISIN ORBIT

Key statistics

Satellite FENGYUN 1C DEB at a glance.

Uptime

9618

Days in orbit

Revolutions

≈ 14.1

Per day

Orbit

SSO

Sun Synchronous Orbit

Inclination

98.7

Latest

Satellite identification and parameters

Extended collection of information and parameters for FENGYUN 1C DEB.

Object identification

Identified? True

Debris? True

Object name: FENGYUN 1C DEB

International designator: 1999-025CUD

Object number (NORAD): 32183

Object ID (CCSDS): 32183

Country: PEOPLES REPUBLIC OF CHINA (PRC)

Current information (Y/N): Y

RCS size: SMALL

Orbital parameters

Period: 102.145 minutes

Inclination: 98.7305 deg

SMA: 7238.333 km

Apoapsis: 890.007 km

Periapsis: 830.389 km

RAAN: 302.3516 deg

Eccentricy: 0.00411816

Argument of periapsis: 341.0784 deg

Mean anomaly: 18.8855 deg

Mean motion: 14.0975919 rev/day

Mean motion (dot): 0.00001396 rev/day2

B* drag term: 0.00081269805 1/REarth

Two-line elements (TLE)

Creation date: Sept. 5, 2025, 10:27 a.m.

Reference frame: TEME

Reference center: EARTH

Epoch: Sept. 5, 2025, 2:03 a.m. UTC

TLE line 0: 0 FENGYUN 1C DEB

TLE line 1: 1 32183U 99025CUD 25248.08565047 .00001396 00000-0 81270-3 0 9998

TLE line 2: 2 32183 98.7305 302.3516 0041182 341.0784 18.8855 14.09759190713746

Live tracking on map

Real-time ground track for satellite FENGYUN 1C DEB.

In-orbit conjunctions

A list of the most updated potential collisions computed for object FENGYUN 1C DEB.

Target Orbit TCA Probability of collision Miss distance Type
CZ-6A DEB LEO 2025-07-25 04:43:46 0.0001314698 610.0 (m) DEBRIS
PSLV R/B SSO 2024-12-16 01:15:15 0.0001468252 346.0 (m) ROCKET BODY
COSMOS 397 DEB * LEO 2024-11-13 09:18:22 0.0002643878 419.0 (m) DEBRIS

Associated space launch

Chinese polar orbiting meteorological satellite

FENGYUN 1C DEB was lifted into orbit during the mission ‘Long March 4B | Feng Yun 1C’, on board a Long March 4B space rocket.

The launch took place on May 10, 1999, 1:33 a.m. from Launch Complex 7.

For more information about the launch, click the button.

Launch to space Long March 4B | Feng Yun 1C
Long March 4B | Feng Yun 1C

Agency: N/A

Status: Launch Successful

Launch date: May 10, 1999, 1:33 a.m. UTC

Rocket: Long March 4B

Launch pad: Launch Complex 7

Location: Taiyuan Satellite Launch Center, People's Republic of China

...

Latest news about this satellite

There are no fresh news available about this satellite. Check back as we update our databases every day.


Newsletter sign-up

Weekly statistics, charts and insights to help you stay on top of the space industry.